• In Latvia
  • List of Countries
  • For 7 days
  • Water Temperature
  • Satellite Maps
  • Weather Map
  • Weather Widgets
  • user-avatar
    Login

    Hourly Weather Sydney

    Today, 20 February, Tuesday

    Time Temperature Precipitation Wind Pressure Humidity
    00:00 +21°C° 1 mm 6 mps 760 mmHg 89%
    01:00 +21°C° 1 mm 7 mps 760 mmHg 90%
    02:00 +21°C° 1 mm 8 mps 760 mmHg 88%
    03:00 +20°C° 1 mm 8 mps 760 mmHg 86%
    04:00 +20°C° 0 mm 8 mps 760 mmHg 86%
    05:00 +20°C° 0.1 mm 8 mps 761 mmHg 83%
    06:00 +20°C° 0.1 mm 8 mps 761 mmHg 81%
    07:00 +20°C° 0.1 mm 8 mps 762 mmHg 78%
    08:00 +21°C° 0.1 mm 8 mps 762 mmHg 70%
    09:00 +22°C° 0.1 mm 8 mps 763 mmHg 63%
    10:00 +22°C° 0 mm 8 mps 763 mmHg 58%
    11:00 +22°C° 0.1 mm 8 mps 763 mmHg 57%
    12:00 +22°C° 0.1 mm 7 mps 763 mmHg 57%
    13:00 +22°C° 0.1 mm 7 mps 763 mmHg 57%
    14:00 +22°C° 0 mm 6 mps 763 mmHg 56%
    15:00 +22°C° 0 mm 6 mps 762 mmHg 56%
    16:00 +22°C° 0 mm 6 mps 762 mmHg 57%
    17:00 +21°C° 0.1 mm 5 mps 763 mmHg 60%
    18:00 +21°C° 0.1 mm 5 mps 763 mmHg 63%
    19:00 +20°C° 0.1 mm 4 mps 763 mmHg 66%
    20:00 +20°C° 0.1 mm 4 mps 763 mmHg 69%
    21:00 +19°C° 0.1 mm 4 mps 763 mmHg 71%
    22:00 +18°C° 0 mm 3 mps 764 mmHg 74%
    23:00 +18°C° 0.1 mm 3 mps 763 mmHg 74%

    Tomorrow, 21 February, Wednesday

    Time Temperature Precipitation Wind Pressure Humidity
    00:00 +18°C° 0.1 mm 3 mps 763 mmHg 74%
    01:00 +18°C° 0.1 mm 3 mps 763 mmHg 74%
    02:00 +18°C° 0 mm 3 mps 763 mmHg 75%
    03:00 +18°C° 0 mm 3 mps 763 mmHg 77%
    04:00 +17°C° 0 mm 3 mps 763 mmHg 78%
    05:00 +18°C° 0 mm 2 mps 763 mmHg 76%
    06:00 +18°C° 0 mm 2 mps 763 mmHg 74%
    07:00 +18°C° 0 mm 2 mps 764 mmHg 72%
    08:00 +20°C° 0 mm 2 mps 763 mmHg 64%
    09:00 +23°C° 0 mm 2 mps 763 mmHg 56%
    10:00 +24°C° 0 mm 2 mps 763 mmHg 49%
    11:00 +26°C° 0 mm 2 mps 763 mmHg 45%
    12:00 +27°C° 0 mm 3 mps 762 mmHg 42%
    13:00 +28°C° 0 mm 3 mps 762 mmHg 38%
    14:00 +27°C° 0 mm 3 mps 762 mmHg 40%
    15:00 +27°C° 0 mm 4 mps 761 mmHg 42%
    16:00 +27°C° 0 mm 4 mps 761 mmHg 43%
    17:00 +25°C° 0 mm 4 mps 761 mmHg 50%
    18:00 +22°C° 0 mm 4 mps 762 mmHg 56%
    19:00 +21°C° 0 mm 4 mps 762 mmHg 63%
    20:00 +20°C° 0 mm 3 mps 762 mmHg 67%
    21:00 +19°C° 0 mm 3 mps 763 mmHg 71%
    22:00 +18°C° 0 mm 3 mps 763 mmHg 74%
    23:00 +18°C° 0 mm 2 mps 763 mmHg 76%

    Day after tomorrow, 22 February, Thursday

    Time Temperature Precipitation Wind Pressure Humidity
    00:00 +18°C° 0 mm 2 mps 762 mmHg 77%
    01:00 +18°C° 0 mm 2 mps 762 mmHg 78%
    02:00 +18°C° 0 mm 2 mps 762 mmHg 78%
    03:00 +19°C° 0 mm 1 mps 762 mmHg 79%
    04:00 +19°C° 0 mm 1 mps 762 mmHg 79%
    05:00 +19°C° 0 mm 1 mps 762 mmHg 77%
    06:00 +20°C° 0 mm 1 mps 762 mmHg 75%
    07:00 +20°C° 0 mm 1 mps 763 mmHg 74%
    08:00 +21°C° 0 mm 2 mps 763 mmHg 65%
    09:00 +24°C° 0 mm 2 mps 763 mmHg 57%
    10:00 +27°C° 0 mm 2 mps 763 mmHg 48%
    11:00 +27°C° 0 mm 3 mps 762 mmHg 46%
    12:00 +28°C° 0 mm 3 mps 762 mmHg 45%
    13:00 +28°C° 0 mm 3 mps 761 mmHg 43%
    14:00 +28°C° 0 mm 4 mps 761 mmHg 45%
    15:00 +27°C° 0 mm 4 mps 761 mmHg 48%
    16:00 +27°C° 0 mm 5 mps 760 mmHg 50%
    17:00 +26°C° 0 mm 4 mps 761 mmHg 56%
    18:00 +23°C° 0 mm 4 mps 761 mmHg 62%
    19:00 +22°C° 0 mm 4 mps 761 mmHg 68%
    20:00 +21°C° 0 mm 4 mps 762 mmHg 72%
    21:00 +20°C° 0 mm 4 mps 762 mmHg 77%
    22:00 +20°C° 0 mm 4 mps 763 mmHg 81%
    23:00 +19°C° 0 mm 4 mps 762 mmHg 83%

    23 February, Friday

    Time Temperature Precipitation Wind Pressure Humidity
    00:00 +19°C° 0 mm 3 mps 762 mmHg 86%
    01:00 +18°C° 0 mm 3 mps 762 mmHg 88%
    02:00 +18°C° 0 mm 3 mps 761 mmHg 89%
    03:00 +18°C° 0 mm 3 mps 761 mmHg 90%
    04:00 +17°C° 0 mm 2 mps 761 mmHg 91%
    05:00 +18°C° 0 mm 2 mps 761 mmHg 88%
    06:00 +19°C° 0 mm 2 mps 762 mmHg 85%
    07:00 +20°C° 0 mm 2 mps 762 mmHg 81%
    08:00 +22°C° 0 mm 3 mps 762 mmHg 73%
    09:00 +25°C° 0 mm 3 mps 762 mmHg 64%
    10:00 +28°C° 0 mm 4 mps 762 mmHg 56%
    11:00 +29°C° 0 mm 5 mps 761 mmHg 51%
    12:00 +30°C° 0 mm 5 mps 760 mmHg 46%
    13:00 +33°C° 0 mm 6 mps 760 mmHg 41%
    14:00 +32°C° 0 mm 6 mps 759 mmHg 45%
    15:00 +32°C° 0 mm 6 mps 759 mmHg 48%
    16:00 +30°C° 0 mm 7 mps 758 mmHg 52%
    17:00 +28°C° 0 mm 7 mps 758 mmHg 59%
    18:00 +27°C° 0 mm 7 mps 759 mmHg 66%
    19:00 +24°C° 0 mm 6 mps 759 mmHg 73%
    20:00 +24°C° 0 mm 6 mps 759 mmHg 75%
    21:00 +23°C° 0 mm 6 mps 759 mmHg 77%
    22:00 +23°C° 0 mm 6 mps 759 mmHg 79%
    23:00 +22°C° 0 mm 5 mps 759 mmHg 81%

    24 February, Saturday

    Time Temperature Precipitation Wind Pressure Humidity
    00:00 +22°C° 0 mm 5 mps 759 mmHg 84%
    01:00 +21°C° 0 mm 4 mps 758 mmHg 86%
    02:00 +21°C° 0 mm 4 mps 758 mmHg 87%
    03:00 +21°C° 0 mm 4 mps 757 mmHg 89%
    04:00 +21°C° 0 mm 4 mps 757 mmHg 90%
    05:00 +21°C° 0 mm 4 mps 757 mmHg 87%
    06:00 +22°C° 0 mm 4 mps 757 mmHg 84%
    07:00 +22°C° 0 mm 4 mps 757 mmHg 81%
    08:00 +26°C° 0 mm 4 mps 757 mmHg 70%
    09:00 +29°C° 0 mm 4 mps 757 mmHg 59%
    10:00 +32°C° 0 mm 4 mps 756 mmHg 49%
    11:00 +35°C° 0 mm 5 mps 755 mmHg 42%
    12:00 +37°C° 0 mm 5 mps 754 mmHg 36%
    13:00 +40°C° 0 mm 6 mps 753 mmHg 30%
    14:00 +38°C° 0 mm 6 mps 753 mmHg 36%
    15:00 +35°C° 0 mm 7 mps 752 mmHg 42%
    16:00 +34°C° 0 mm 7 mps 752 mmHg 48%
    17:00 +33°C° 0 mm 7 mps 752 mmHg 51%
    18:00 +32°C° 0 mm 7 mps 752 mmHg 54%
    19:00 +30°C° 0 mm 7 mps 751 mmHg 56%
    20:00 +29°C° 0.4 mm 6 mps 751 mmHg 63%
    21:00 +28°C° 0.4 mm 5 mps 752 mmHg 70%
    22:00 +26°C° 0.4 mm 4 mps 752 mmHg 77%
    23:00 +26°C° 1.4 mm 4 mps 751 mmHg 80%

    25 February, Sunday

    Time Temperature Precipitation Wind Pressure Humidity
    00:00 +26°C° 1.4 mm 3 mps 751 mmHg 83%
    01:00 +25°C° 1.4 mm 3 mps 751 mmHg 86%
    02:00 +25°C° 0.4 mm 4 mps 752 mmHg 87%
    03:00 +23°C° 0.4 mm 6 mps 752 mmHg 87%
    04:00 +23°C° 0.4 mm 7 mps 753 mmHg 87%
    05:00 +22°C° 0 mm 7 mps 754 mmHg 84%
    06:00 +22°C° 0 mm 8 mps 755 mmHg 81%
    07:00 +21°C° 0 mm 8 mps 756 mmHg 78%
    08:00 +22°C° 0 mm 8 mps 756 mmHg 69%
    09:00 +23°C° 0 mm 7 mps 757 mmHg 60%
    10:00 +24°C° 0 mm 7 mps 757 mmHg 51%
    11:00 +26°C° 0 mm 7 mps 757 mmHg 48%
    12:00 +26°C° 0 mm 8 mps 757 mmHg 45%
    13:00 +27°C° 0 mm 8 mps 757 mmHg 41%
    14:00 +26°C° 0 mm 8 mps 757 mmHg 43%
    15:00 +26°C° 0 mm 9 mps 757 mmHg 45%
    16:00 +24°C° 0 mm 9 mps 758 mmHg 46%
    17:00 +22°C° 0 mm 8 mps 758 mmHg 52%
    18:00 +21°C° 0 mm 8 mps 759 mmHg 57%
    19:00 +18°C° 0 mm 7 mps 760 mmHg 62%
    20:00 +19°C° 0 mm 6 mps 761 mmHg 64%
    21:00 +17°C° 0 mm 5 mps 761 mmHg 67%
    22:00 +17°C° 0 mm 5 mps 762 mmHg 70%
    23:00 +18°C° 0 mm 4 mps 762 mmHg 69%
    Show more